STARLINK-4114, 53162

Orbit data source: Space-Track

STARLINK-4114, 53162 is a payload satellite owned by SpaceX/Seattle (US) in LEO that was launched on Sun, 17 Jul 2022 UTC via an FALCON 9 launch vehicle from the Air Force Eastern Test Range (AFETR). Payload-class satellites include a variety of spacecraft equipped with specific instruments for various scientific and technological missions. These include communications satellites like Starlink; space stations such as the ISS; scientific satellites like the Hubble; Earth observation satellites from companies like Planet Labs, Umbra, and HawkEye 360; GPS; miniature CubeSats for education and research; and military/defense satellites.

Loading next visibility...
Identifier
53162, 2022-083AG
Orbit
LEO
Country
Flag of USUS
Related business
Manufacturer
SpaceX/Seattle
Mission
Operational Commercial Communications
Bus & Motor
STARLINK, Unknown motor
Mass
297 kg wet, ~275 kg dry
Launch date (UTC)
2022-07-17 (4 years ago)
Launch vehicle
FALCON 9
Launch site
Air Force Eastern Test Range (AFETR)
Object type
Payload
Rocket body
Debris
Shape & HBR
Box + 1 Pan, 10.1 m
Radar Cross Section
13.562 m², Large (>1 m²)

Expand to show TLE details & history
Last TLE update: 3 days ago

TLE from 3 days ago
0 STARLINK-4114
1 53162U 22083AG  26170.92177583 -.00000761  00000-0 -29718-4 0  9997
2 53162  53.1601  65.0814 0001451  97.0154 263.1003 15.08835332216794
Epoch: 2026-06-19T22:07Z
TLE epoch observation values (Epoch: 2026-06-19T22:07:21.431Z)
Latitude
0.00001°
Longitude
-174.9017°
Altitude
540.77 km
Speed
7.593 km/s
True Right ascension
04h 20m 19s
True Declination
0° 00' 00"
Sunlit
Object was in daylight at epoch
Visualization orbit readout
Latitude
Unknown
Longitude
Unknown
Altitude
Unknown
Speed
Unknown
Apparent Right ascension
Unknown
Apparent Declination
Unknown
Sunlit
N/A
Visualization observer readout
Local Sidereal Time
21:25:32
Azimuth
Unknown
Elevation
Unknown
Doppler factor
Unknown
Orbital elements
Apogee altitude
541.016 km
Perigee altitude
539.008 km
Semi-major axis
6,918.149 km
Eccentricity
0.00015
Inclination
53.1601°
RAAN
65.0814°
Arg. of periapsis
97.0154°
True anomaly
263.08379°
Mean anomaly
263.1003°
Eccentric anomaly
263.09205°
Mean motion
3.77188 °/min
Orbital period
95.44 mins
BSTAR
-0.000029718
Loading maneuver chart data...
Computing Atmospheric mass density...
Loading historical data...
Loading historical data...
Loading historical data...
Loading historical data...
Loading historical data...
Loading historical data...
Loading historical data...

Documentation

Showing up to 5 results
|